ATLAS 5 CENTAUR DEB, 44848

Orbit data source: Space-Track

ATLAS 5 CENTAUR DEB, 44848 is space debris in HEO originally from a launch on Wed, 17 Sep 2014 UTC launched from the Air Force Eastern Test Range (AFETR). Debris objects in space refer to the collection of defunct objects orbiting the Earth. Examples of debris include non-operational satellites, rocket bodies, and fragments generated from explosions, collisions, or faulty payload assembly.

Loading next visibility...
Identifier
44848, 2014-055CG
Orbit
HEO
Country
Flag of USUS
Related business
Flag of USUnited Launch Alliance/Lockheed Martin (US)
Manufacturer
Unknown
Mission
Spacecraft
Bus & Motor
Unknown
Mass
Unknown
Launch date (UTC)
2014-09-17 (11 years ago)
Launch vehicle
Unknown
Launch site
Air Force Eastern Test Range (AFETR)
Object type
Payload
Rocket body
Debris
Shape & HBR
Unknown shape, 1.1 m
Radar Cross Section
RCS unknown

Expand to show TLE details & history
Last TLE update: 23 hours ago

TLE from 23 hours ago
0 ATLAS 5 CENTAUR DEB
1 44848U 14055CG  26072.22560034 -.00000132  00000-0  00000-0 0  9999
2 44848  20.5868 127.7556 4957257 193.8184 145.0868  1.88593209 45450
Epoch: 2026-03-13T05:24Z
TLE epoch observation values (Epoch: 2026-03-13T05:24:51.869Z)
Latitude
0.00001°
Longitude
-124.27972°
Altitude
33,870.701 km
Speed
2.325 km/s
True Right ascension
08h 31m 12s
True Declination
0° 00' 00"
Sunlit
Object was in daylight at epoch
Visualization orbit readout
Latitude
Unknown
Longitude
Unknown
Altitude
Unknown
Speed
Unknown
Apparent Right ascension
Unknown
Apparent Declination
Unknown
Sunlit
N/A
Visualization observer readout
Local Sidereal Time
08:43:37
Azimuth
Unknown
Elevation
Unknown
Doppler factor
Unknown
Orbital elements
Apogee altitude
35,015.58 km
Perigee altitude
7,577.488 km
Semi-major axis
27,674.671 km
Eccentricity
0.49573
Inclination
20.5868°
RAAN
127.7556°
Arg. of periapsis
193.8184°
True anomaly
166.19116°
Mean anomaly
145.0868°
Eccentric anomaly
156.43982°
Mean motion
0.47143 °/min
Orbital period
763.63 mins
BSTAR
0
Loading maneuver chart data...
Computing Atmospheric mass density...

Documentation

Showing up to 5 results
|